Marcus Forsberg

Scout - BK Hacken
5 Dez 2027
Sonntag
Verarbeitung

Persönlichkeit

Anpassungsfähigkeit (2) Ehrgeiz (19) Kontroverse (1) Loyalität (9) Druck (12) Professionalität (11) Fairness (18) Temperament (2)

Profil

Trainerstil Demokratisch
Lizenz Kontinentale Pro
Entschlossenheit 8
Menschenführung 10
Motivation 12
Disziplin 4
Arbeitszufriedenheit
83%
Ermüdung
0%
Rolle Scout
Gehalt 34.2K p/W
Vertrag 14.03.2030

Leistung

Verhalten Gut
Trainingseffektivität
35%
Spielerentwicklung
25%
Verletzungsprävention
60%
Taktische Umsetzung
35%

Letzte Ereignisse

Nahm an einer Scouting-Besprechung teil jetzt
Nahm an einer Scouting-Besprechung teil jetzt
Empfahl ein Transferziel jetzt
Empfahl ein Transferziel jetzt
Empfahl ein Transferziel 7T her
Empfahl ein Transferziel 7T her
Nahm an einer Scouting-Besprechung teil 7T her
Nahm an einer Scouting-Besprechung teil 7T her

Aktuell beobachtet

117
Spieler Verein Status Fähigkeit Vertrauen Beobachtet Zuletzt beobachtet Letzte Stimme
Gustav Friberg Halmstad Aktiv 96 / 104 51% 1 16.08.2027 -
Stanislav Agkatsev CSKA Moscow Verhandlung 132 / 133 66% 1 16.07.2027 Befürworten
Alexander Johansson BK Hacken Verhandlung 101 / 101 68% 1 16.07.2027 Befürworten
Juan Manuel Boselli Krasnodar Aktiv 125 / 118 40% 1 30.01.2027 -
Ilyas Ansah Hull City Aktiv 132 / 139 40% 1 28.01.2027 Mehr Infos nötig
Zian Flemming Ipswich Town Aktiv 140 / 133 40% 2 27.01.2027 -
Armstrong Oko-Flex Levski Aktiv 123 / 126 40% 2 27.01.2027 -
Marezi Portsmouth Aktiv 128 / 119 40% 2 26.01.2027 -
George Hirst Stoke City Aktiv 131 / 130 40% 1 26.01.2027 -
Callum O'Hare Sheffield United Aktiv 129 / 125 40% 2 25.01.2027 Mehr Infos nötig
Andri Guðjohnsen Blackburn Rovers Aktiv 122 / 119 40% 1 25.01.2027 -
Daniel Kyerewaa Reading Aktiv 115 / 119 40% 2 21.01.2027 -
Yasin Ayari Brighton Aktiv 148 / 147 40% 1 21.01.2027 -
Patrick Agyemang Derby County Aktiv 122 / 116 40% 3 18.01.2027 -
Tom Cannon Sheffield United Aktiv 140 / 128 40% 1 17.01.2027 -
Josh Coburn Millwall Aktiv 120 / 120 40% 1 17.01.2027 -
Matyáš Vojta Sparta Prague Aktiv 123 / 131 40% 1 16.01.2027 -
Kyle Joseph Middlesbrough Aktiv 131 / 117 40% 1 16.01.2027 -
Richard Koné Queens Park Rangers Aktiv 119 / 125 40% 1 14.01.2027 -
Frederik Ihler IF Elfsborg Aktiv 101 / 116 40% 3 13.01.2027 -
Mojmír Chytil Slavia Prague Aktiv 149 / 135 40% 1 13.01.2027 -
Ronan Hale Gillingham Aktiv 102 / 109 40% 2 12.01.2027 -
Marcus Forss Bristol Rovers Aktiv 112 / 110 40% 1 12.01.2027 -
Malik Mothersille Stockport County Aktiv 100 / 116 40% 3 10.01.2027 -
Hélio Varela Maccabi Tel Aviv Aktiv 124 / 123 40% 1 10.01.2027 -
Veljko Birmančević Ferencvaros Aktiv 141 / 139 40% 1 08.01.2027 -
Tshepang Moremi Orlando Pirates Aktiv 137 / 106 40% 3 07.01.2027 -
Ronald Swansea City Aktiv 134 / 132 40% 1 07.01.2027 -
Sead Hakšabanović Malmo FF Aktiv 121 / 115 40% 3 05.01.2027 -
Tyrese Campbell Sheffield United Aktiv 123 / 129 40% 2 02.01.2027 -
Dean Mkhize Ajax Cape Town Aktiv 108 / 130 40% 1 02.01.2027 -
Sayfallah Ltaief Cracovia Aktiv 119 / 115 40% 1 01.01.2027 -
Žan Vipotnik Swansea City Aktiv 124 / 126 40% 1 31.12.2026 -
Milan van Ewijk Coventry City Aktiv 145 / 136 40% 2 28.12.2026 -
Zeidane Inoussa Swansea City Aktiv 135 / 125 40% 1 27.12.2026 -
Aidomo Emakhu Oxford United Aktiv 119 / 125 40% 1 26.12.2026 -
Paulos Abraham Hammarby Aktiv 130 / 114 40% 9 22.12.2026 -
Stanley Mills Oxford United Aktiv 116 / 128 40% 1 22.12.2026 -
Sorba Thomas Stoke City Aktiv 134 / 135 40% 1 20.12.2026 -
Habib Diarra Sunderland Aktiv 136 / 150 40% 1 20.12.2026 -
Sebastián Arce Rodina Aktiv 120 / 114 40% 1 18.12.2026 -
Brayan León Mamelodi Sundowns Aktiv 103 / 124 40% 2 16.12.2026 -
Sam Greenwood Bristol City Aktiv 127 / 125 40% 1 13.12.2026 -
Akinkunmi Amoo HNK Rijeka Aktiv 111 / 121 40% 1 13.12.2026 -
Amin Boudri Los Angeles Football Club Aktiv 117 / 125 40% 2 12.12.2026 -
Yousef Salech Cardiff City Aktiv 113 / 130 40% 1 08.12.2026 -
Petter Nosa Dahl Rapid Wien Aktiv 126 / 128 40% 3 05.12.2026 -
Ole-Didrik Blomberg Bodo/Glimt Aktiv 127 / 123 40% 2 03.12.2026 -
Matthias Seidl Rapid Wien Aktiv 117 / 120 40% 2 03.12.2026 -
Montader Madjed Hammarby Aktiv 112 / 128 40% 2 02.12.2026 -
Alexander Warneryd Tromso Aktiv 107 / 112 40% 2 02.12.2026 -
Daniel Karlsbakk Sarpsborg 08 Aktiv 134 / 122 40% 2 02.12.2026 -
Cheikh Sabaly Vancouver Whitecaps Aktiv 105 / 120 40% 1 30.11.2026 -
Andreas Helmersen Bodo/Glimt Aktiv 118 / 125 40% 5 28.11.2026 -
Lucas Assadi AIK Aktiv 116 / 123 40% 3 27.11.2026 -
Emil Breivik Molde Aktiv 131 / 127 40% 1 27.11.2026 -
Erik Botheim Viking Aktiv 119 / 123 40% 2 26.11.2026 -
Simen Kvia-Egeskog Viking Aktiv 109 / 128 40% 1 17.11.2026 -
Mayckel Lahdo Malmo FF Aktiv 127 / 135 40% 1 16.11.2026 -
Jens Petter Hauge Bodo/Glimt Aktiv 149 / 132 40% 1 15.11.2026 -
Simen Bolkan Nordli Rosenborg Aktiv 112 / 125 40% 1 15.11.2026 -
Talles Magno New York City Aktiv 140 / 133 40% 1 12.11.2026 -
Theo Corbeanu Toronto FC Aktiv 117 / 124 40% 2 11.11.2026 -
Josh Sargent Toronto FC Aktiv 125 / 133 40% 2 07.11.2026 -
Markus Karlsson Hammarby Aktiv 136 / 117 40% 1 05.11.2026 -
Rafael Navarro St. Louis CITY SC Aktiv 127 / 123 40% 2 02.11.2026 -
Tadeo Allende Inter Miami CF Aktiv 128 / 120 40% 2 30.10.2026 -
Obilor Okeke Hammarby Aktiv 111 / 114 40% 4 28.10.2026 Beobachten
Diego García Malmo FF Aktiv 132 / 112 40% 1 28.10.2026 -
Kévin Denkey FC Cincinnati Aktiv 143 / 137 40% 1 27.10.2026 -
Ahmed Qasem Nashville SC Aktiv 134 / 131 40% 1 27.10.2026 -
Matej Trusa DAC Dunajska Streda Aktiv 120 / 120 40% 1 25.10.2026 -
Joel Asoro Apollon Aktiv 134 / 116 40% 2 24.10.2026 -
Jesus Ferreira Seattle Sounders Aktiv 145 / 134 40% 1 23.10.2026 -
Reda Khadra Qarabag Aktiv 134 / 138 40% 1 19.10.2026 -
Áron Csongvai AIK Aktiv 122 / 126 40% 1 19.10.2026 -
Kristian Strømland Lien Djurgarden Aktiv 106 / 117 40% 1 17.10.2026 -
Martín Ojeda Orlando City Aktiv 114 / 126 40% 1 17.10.2026 -
Wessam Abou Ali Columbus Crew Aktiv 125 / 137 40% 1 15.10.2026 -
Louis Munteanu DC United Aktiv 115 / 131 40% 1 14.10.2026 -
Gabriel Pirani San Diego Football Club Aktiv 114 / 138 40% 2 13.10.2026 -
Halldor Stenevik Molde Aktiv 115 / 121 40% 1 13.10.2026 -
Emmanuel Ekong Malmo FF Aktiv 125 / 122 40% 2 12.10.2026 -
Ola Brynhildsen Rosenborg Aktiv 118 / 130 40% 1 09.10.2026 -
David Edvardsson Tromso Aktiv 110 / 121 40% 1 05.10.2026 -
Patrik Wålemark Lech Aktiv 138 / 124 40% 1 05.10.2026 -
Telasco Segovia Inter Miami CF Aktiv 116 / 133 40% 1 03.10.2026 -
Edvard Tagseth Nashville SC Aktiv 108 / 126 40% 1 01.10.2026 -
Hampus Skoglund Hammarby Aktiv 106 / 117 40% 1 29.09.2026 -
Filip Bundgaard Brondby Aktiv 114 / 117 40% 1 28.09.2026 -
Bénie Traoré New York City Aktiv 127 / 136 40% 1 28.09.2026 -
Morrison Agyemang Charlotte Football Club Aktiv 120 / 126 40% 1 28.09.2026 -
Runar Norheim FC Nordsjaelland Aktiv 125 / 125 40% 1 28.09.2026 -
Prince Owusu CF Montreal Aktiv 102 / 111 40% 1 26.09.2026 -
Andrei Dragusin Astra Aktiv 141 / 123 40% 1 26.09.2026 -
Roman Dixon Walsall Aktiv 111 / 102 40% 1 25.09.2026 -
Taha Ali PAOK Aktiv 111 / 117 40% 1 25.09.2026 -
Tobias Bech AGF Aktiv 136 / 126 40% 1 25.09.2026 -
Kenan Busuladžić AIK Aktiv 107 / 123 40% 1 23.09.2026 -
Alonso Martínez New York City Aktiv 105 / 113 40% 2 21.09.2026 -
Mateusz Bogusz Houston Dynamo Aktiv 147 / 128 40% 1 19.09.2026 -
Cho Gue-Sung FC Midtjylland Aktiv 123 / 131 40% 1 18.09.2026 -
Alexander Lyng SonderjyskE Aktiv 120 / 121 40% 1 17.09.2026 -
Mathias Jensen Brondby Aktiv 96 / 119 40% 1 16.09.2026 -
Waylon Renecke Hammarby Aktiv 100 / 102 40% 1 16.09.2026 -
Luca Langoni New England Revolution Aktiv 122 / 126 40% 1 15.09.2026 -
Jordan Lotomba Bloemfontein Celtic Aktiv 102 / 123 40% 1 13.09.2026 -
Paxten Aaronson Colorado Rapids Aktiv 118 / 143 40% 1 13.09.2026 -
Antonio Galeano Remo Stars Aktiv 103 / 115 40% 1 12.09.2026 -
Alexander Aravena Portland Timbers Aktiv 144 / 124 40% 1 12.09.2026 -
Emmanuel Dennis Brondby Aktiv 122 / 113 40% 1 12.09.2026 -
Bryan Ramírez FC Cincinnati Aktiv 126 / 123 40% 1 10.09.2026 -
Germán Berterame Inter Miami CF Aktiv 117 / 123 40% 1 09.09.2026 -
Tomás Chancalay Minnesota United FC Aktiv 109 / 122 40% 1 09.09.2026 -
Dejan Joveljić Seattle Sounders Aktiv 134 / 134 40% 1 08.09.2026 -
Hjalte Bidstrup Viborg Aktiv 101 / 118 40% 1 08.09.2026 -
Ethan Ampadu Leeds United Aktiv 141 / 150 40% 1 01.08.2026 -